When you browse on this site, cookies collect data to enhance your experience and personalize the content and advertising you see.
Visit our Privacy Policy to learn more. By continuing to use the site, you agree to this use of cookies and data.
EN

Hourly Weather Sarvar

Today, 8 August, Saturday

Time Temperature Precipitation Wind Pressure Humidity
00:00 +23°C° 0 mm 2 mps 750 mmHg 62%
01:00 +23°C° 0 mm 2 mps 750 mmHg 64%
02:00 +21°C° 0 mm 2 mps 750 mmHg 64%
03:00 +21°C° 0 mm 2 mps 750 mmHg 65%
04:00 +21°C° 0 mm 3 mps 750 mmHg 66%
05:00 +22°C° 0 mm 3 mps 750 mmHg 65%
06:00 +24°C° 0 mm 3 mps 750 mmHg 64%
07:00 +25°C° 0 mm 3 mps 750 mmHg 61%
08:00 +27°C° 0 mm 3 mps 750 mmHg 56%
09:00 +29°C° 0 mm 3 mps 750 mmHg 51%
10:00 +31°C° 0 mm 3 mps 750 mmHg 46%
11:00 +33°C° 0 mm 3 mps 750 mmHg 42%
12:00 +34°C° 0 mm 3 mps 750 mmHg 39%
13:00 +35°C° 0 mm 3 mps 750 mmHg 35%
14:00 +35°C° 0 mm 3 mps 749 mmHg 35%
15:00 +35°C° 0 mm 2 mps 749 mmHg 35%
16:00 +35°C° 0 mm 2 mps 749 mmHg 35%
17:00 +32°C° 0 mm 2 mps 749 mmHg 39%
18:00 +30°C° 0 mm 2 mps 748 mmHg 44%
19:00 +28°C° 0 mm 1 mps 748 mmHg 48%
20:00 +27°C° 0 mm 1 mps 748 mmHg 50%
21:00 +26°C° 0 mm 1 mps 748 mmHg 52%
22:00 +24°C° 0 mm 1 mps 749 mmHg 53%
23:00 +24°C° 0 mm 1 mps 749 mmHg 54%

Tomorrow, 9 August, Sunday

Time Temperature Precipitation Wind Pressure Humidity
00:00 +24°C° 0 mm 1 mps 748 mmHg 56%
01:00 +23°C° 0 mm 1 mps 748 mmHg 57%
02:00 +23°C° 0 mm 1 mps 748 mmHg 58%
03:00 +22°C° 0 mm 1 mps 748 mmHg 60%
04:00 +22°C° 0 mm 1 mps 748 mmHg 61%
05:00 +23°C° 0 mm 2 mps 748 mmHg 61%
06:00 +24°C° 0 mm 2 mps 748 mmHg 62%
07:00 +25°C° 0 mm 2 mps 748 mmHg 62%
08:00 +27°C° 0 mm 3 mps 748 mmHg 58%
09:00 +28°C° 0 mm 3 mps 748 mmHg 54%
10:00 +30°C° 0 mm 4 mps 748 mmHg 49%
11:00 +32°C° 0 mm 4 mps 748 mmHg 46%
12:00 +33°C° 0 mm 4 mps 748 mmHg 43%
13:00 +34°C° 0 mm 4 mps 747 mmHg 39%
14:00 +34°C° 0 mm 4 mps 747 mmHg 39%
15:00 +34°C° 0 mm 4 mps 747 mmHg 38%
16:00 +34°C° 0 mm 4 mps 747 mmHg 38%
17:00 +31°C° 0 mm 3 mps 747 mmHg 43%
18:00 +29°C° 0 mm 3 mps 747 mmHg 48%
19:00 +28°C° 0 mm 2 mps 747 mmHg 54%
20:00 +27°C° 0 mm 2 mps 747 mmHg 57%
21:00 +26°C° 0 mm 2 mps 747 mmHg 60%
22:00 +25°C° 0 mm 2 mps 747 mmHg 63%
23:00 +25°C° 0 mm 2 mps 747 mmHg 65%

Day after tomorrow, 10 August, Monday

Time Temperature Precipitation Wind Pressure Humidity
00:00 +24°C° 0 mm 2 mps 747 mmHg 67%
01:00 +24°C° 0 mm 2 mps 747 mmHg 69%
02:00 +23°C° 0 mm 2 mps 747 mmHg 70%
03:00 +23°C° 0 mm 2 mps 747 mmHg 72%
04:00 +21°C° 0 mm 2 mps 747 mmHg 74%
05:00 +23°C° 0 mm 2 mps 747 mmHg 72%
06:00 +24°C° 0 mm 2 mps 747 mmHg 70%
07:00 +25°C° 0 mm 2 mps 747 mmHg 68%
08:00 +27°C° 0 mm 2 mps 747 mmHg 62%
09:00 +29°C° 0 mm 1 mps 747 mmHg 56%
10:00 +31°C° 0 mm 1 mps 747 mmHg 50%
11:00 +32°C° 0 mm 1 mps 747 mmHg 46%
12:00 +33°C° 0 mm 1 mps 746 mmHg 42%
13:00 +34°C° 0 mm 1 mps 746 mmHg 38%
14:00 +34°C° 0 mm 1 mps 746 mmHg 38%
15:00 +33°C° 0 mm 1 mps 746 mmHg 38%
16:00 +33°C° 0 mm 1 mps 746 mmHg 38%
17:00 +31°C° 0 mm 1 mps 746 mmHg 43%
18:00 +30°C° 0 mm 1 mps 746 mmHg 49%
19:00 +28°C° 0 mm 1 mps 746 mmHg 54%
20:00 +27°C° 0 mm 1 mps 746 mmHg 57%
21:00 +26°C° 0 mm 1 mps 746 mmHg 59%
22:00 +25°C° 0 mm 1 mps 746 mmHg 62%
23:00 +25°C° 0 mm 1 mps 746 mmHg 64%

11 August, Tuesday

Time Temperature Precipitation Wind Pressure Humidity
00:00 +24°C° 0 mm 1 mps 746 mmHg 66%
01:00 +24°C° 0 mm 1 mps 746 mmHg 69%
02:00 +23°C° 0 mm 1 mps 746 mmHg 71%
03:00 +23°C° 0 mm 1 mps 746 mmHg 73%
04:00 +22°C° 0 mm 1 mps 746 mmHg 75%
05:00 +23°C° 0 mm 1 mps 746 mmHg 72%
06:00 +24°C° 0 mm 1 mps 747 mmHg 70%
07:00 +25°C° 0 mm 2 mps 747 mmHg 68%
08:00 +27°C° 0 mm 2 mps 747 mmHg 62%
09:00 +29°C° 0 mm 2 mps 747 mmHg 56%
10:00 +31°C° 0 mm 2 mps 747 mmHg 50%
11:00 +32°C° 0 mm 2 mps 747 mmHg 46%
12:00 +33°C° 0 mm 1 mps 747 mmHg 42%
13:00 +34°C° 0 mm 1 mps 747 mmHg 38%
14:00 +34°C° 0 mm 1 mps 747 mmHg 38%
15:00 +34°C° 0 mm 1 mps 746 mmHg 37%
16:00 +34°C° 0 mm 1 mps 746 mmHg 37%
17:00 +32°C° 0 mm 1 mps 746 mmHg 42%
18:00 +30°C° 0 mm 2 mps 746 mmHg 47%
19:00 +29°C° 0 mm 2 mps 746 mmHg 52%
20:00 +27°C° 0.1 mm 2 mps 746 mmHg 56%
21:00 +26°C° 0.1 mm 2 mps 746 mmHg 61%
22:00 +24°C° 0.1 mm 2 mps 747 mmHg 66%
23:00 +24°C° 0.1 mm 2 mps 747 mmHg 69%

12 August, Wednesday

Time Temperature Precipitation Wind Pressure Humidity
00:00 +23°C° 0.1 mm 2 mps 747 mmHg 72%
01:00 +23°C° 0.1 mm 2 mps 747 mmHg 75%
02:00 +21°C° 0 mm 2 mps 747 mmHg 77%
03:00 +22°C° 0 mm 1 mps 747 mmHg 78%
04:00 +21°C° 0 mm 1 mps 747 mmHg 80%
05:00 +21°C° 0 mm 2 mps 747 mmHg 78%
06:00 +23°C° 0 mm 2 mps 747 mmHg 76%
07:00 +24°C° 0 mm 2 mps 747 mmHg 73%
08:00 +25°C° 0.1 mm 2 mps 747 mmHg 68%
09:00 +27°C° 0.1 mm 2 mps 747 mmHg 62%
10:00 +28°C° 0.1 mm 1 mps 748 mmHg 57%
11:00 +30°C° 0.1 mm 2 mps 747 mmHg 53%
12:00 +31°C° 0.1 mm 2 mps 747 mmHg 49%
13:00 +32°C° 0.1 mm 2 mps 747 mmHg 45%
14:00 +32°C° 0.2 mm 2 mps 747 mmHg 46%
15:00 +31°C° 0.2 mm 2 mps 747 mmHg 47%
16:00 +31°C° 0.2 mm 2 mps 747 mmHg 49%
17:00 +29°C° 0.3 mm 2 mps 747 mmHg 54%
18:00 +28°C° 0.3 mm 1 mps 747 mmHg 59%
19:00 +26°C° 0.3 mm 1 mps 747 mmHg 65%
20:00 +26°C° 0.3 mm 1 mps 747 mmHg 67%
21:00 +23°C° 0.3 mm 0 mps 747 mmHg 69%
22:00 +22°C° 0.3 mm 0 mps 747 mmHg 71%
23:00 +24°C° 0.1 mm 1 mps 747 mmHg 72%

13 August, Thursday

Time Temperature Precipitation Wind Pressure Humidity
00:00 +23°C° 0.1 mm 1 mps 747 mmHg 73%
01:00 +23°C° 0.1 mm 1 mps 747 mmHg 75%
02:00 +22°C° 0.1 mm 1 mps 747 mmHg 76%
03:00 +22°C° 0.1 mm 1 mps 747 mmHg 77%
04:00 +21°C° 0.1 mm 1 mps 747 mmHg 78%
05:00 +22°C° 0.2 mm 1 mps 747 mmHg 76%
06:00 +23°C° 0.2 mm 2 mps 747 mmHg 74%
07:00 +24°C° 0.2 mm 2 mps 747 mmHg 73%
08:00 +25°C° 0.1 mm 2 mps 747 mmHg 66%
09:00 +27°C° 0.1 mm 2 mps 747 mmHg 59%
10:00 +29°C° 0.1 mm 3 mps 747 mmHg 52%
11:00 +30°C° 0 mm 3 mps 747 mmHg 48%
12:00 +31°C° 0 mm 3 mps 747 mmHg 43%
13:00 +33°C° 0 mm 3 mps 746 mmHg 39%
14:00 +33°C° 0 mm 3 mps 746 mmHg 39%
15:00 +33°C° 0 mm 3 mps 746 mmHg 39%
16:00 +34°C° 0 mm 3 mps 746 mmHg 39%
17:00 +31°C° 0 mm 3 mps 746 mmHg 45%
18:00 +29°C° 0 mm 3 mps 745 mmHg 51%
19:00 +27°C° 0 mm 3 mps 745 mmHg 57%
20:00 +26°C° 0 mm 2 mps 746 mmHg 60%
21:00 +25°C° 0 mm 2 mps 746 mmHg 63%
22:00 +24°C° 0 mm 2 mps 746 mmHg 66%
23:00 +24°C° 0 mm 2 mps 746 mmHg 67%
Show more